Location: Le Plan Olive
(43.2333°N, 5.5500°E)
Time: 07:09:11
(UTC+00:00)

Daily predictions for brighter satellites

Satellite Brightness Start Highest point End
(mag) Time Altitude Azimuth Time Altitude Azimuth Time Altitude Azimuth
SPOT 3 Rocket 4.1 19:16:00 10° SE 19:20:52 41° ENE 19:25:43 10° N
Cosmos 1515 Rocket 3.6 19:16:32 10° N 19:21:02 85° E 19:25:30 10° S
Cosmos 389 Rocket 3.9 19:18:27 10° NNE 19:21:11 21° ENE 19:23:53 10° SE
Cosmos 2251 Rocket 3.5 19:16:51 10° S 19:22:04 73° ESE 19:27:21 10° NNE
Cosmos 1812 4.1 19:20:03 10° NNE 19:23:07 22° ENE 19:26:09 10° SE
Cosmos 1727 Rocket 4.2 19:17:13 10° N 19:23:28 56° ENE 19:29:41 10° SSE
Cosmos 1151 Rocket 4.3 19:23:40 10° NNW 19:27:43 42° W 19:31:44 10° SSW
Cosmos 1656 4.1 19:22:36 10° NNW 19:27:53 47° ENE 19:33:12 10° SE
Cosmos 1633 3.1 19:26:23 10° SSW 19:29:53 62° W 19:33:24 10° N
Resurs 01 Rocket 2.5 19:28:03 10° SE 19:31:59 33° ENE 19:35:57 10° N
Cosmos 972 Rocket 3.9 19:29:33 10° NNW 19:34:32 64° ENE 19:39:22 10° SSE
Cosmos 1441 Rocket 3.9 19:33:43 10° SSE 19:37:09 32° E 19:40:33 10° NNE
Cosmos 614 Rocket 4.3 19:35:45 10° S 19:40:36 45° ESE 19:45:33 10° NNE
Cosmos 1900 4.4 19:38:57 10° SSW 19:43:52 89° WNW 19:48:55 10° NNE
MONITOR-E 3.8 19:44:35 10° S 19:46:57 65° W 19:49:19 10° NNW
IRIDIUM 103 4.4 19:43:45 10° SSE 19:48:52 60° E 19:54:01 10° N
USA 267 3.2 19:42:56 10° NE 19:49:28 68° SE 19:55:58 10° SW
Cosmos 1821 Rocket 4.1 19:45:04 10° SSE 19:50:58 54° E 19:56:59 10° NNE
COSMOS 2406 3.2 19:47:11 10° SSW 19:52:53 72° ESE 19:58:38 10° NNE
Cosmos 1743 Rocket 4.3 19:49:46 10° SSW 19:54:08 59° W 19:58:34 10° N
Shenzhou-11 Module 1.2 19:51:47 10° W 19:54:09 81° S 19:55:30 22° E
CZ-2C R/B 3.6 19:52:52 10° NNE 19:57:32 80° ESE 20:02:03 10° S
SL-16 R/B 4.5 19:56:54 10° NNE 19:57:58 10° NE 19:59:03 10° NE
Intercosmos 25 3.5 19:54:49 10° N 19:59:05 51° ENE 20:01:25 18° SSE
Lacrosse 5 4.1 19:56:48 10° NNW 20:00:23 19° NNE 20:03:57 10° ENE
Cosmos 1862 3.3 19:58:19 10° S 20:02:22 88° WNW 20:06:27 10° N
Sich 1 3.1 19:58:56 10° S 20:03:16 58° E 20:07:38 10° NNE
Cosmos 2369 4.2 19:58:34 10° NNW 20:04:06 47° ENE 20:08:05 18° SE
SJ-6B 4.5 20:00:55 10° SSW 20:04:39 34° W 20:08:22 10° NNW
IRIDIUM 106 4.3 20:01:55 10° S 20:07:09 88° E 20:12:23 10° N
BREEZE-M DEB (TANK) 4.2 20:04:40 10° WNW 20:07:40 25° NNW 20:09:28 10° NE
Cosmos 2082 Rocket 2.7 20:02:53 10° S 20:08:07 39° ESE 20:13:20 10° NE
Meteor 2-6 Rocket 4.4 20:02:49 10° NNW 20:08:19 74° W 20:13:56 10° S
Cosmos 1818 3.7 20:03:13 10° NNW 20:08:40 63° NE 20:12:24 20° SE
Cosmos 2278 4.5 20:08:01 10° N 20:13:20 38° ENE 20:16:44 20° ESE
Cosmos 2123 Rocket 4.4 20:08:02 10° N 20:13:59 46° ENE 20:18:06 20° SE
Spot 2 Rocket 4.0 20:11:25 20° SE 20:14:38 45° ENE 20:19:29 10° N
Cosmos 1000 Rocket 4.4 20:11:14 10° N 20:17:32 80° E 20:23:06 13° S
Resurs 1-3 4.3 20:14:03 10° S 20:18:20 53° W 20:22:38 10° NNW
Cosmos 2239 Rocket 4.4 20:14:09 10° S 20:20:16 78° E 20:26:26 10° N
Cosmos 2322 Rocket 4.4 20:18:16 10° NNE 20:20:39 13° NE 20:23:02 10° ENE
Cosmos 1190 Rocket 4.0 20:15:44 10° S 20:20:54 61° ESE 20:26:08 10° NNE
Cosmos 1184 Rocket 3.9 20:21:02 26° E 20:21:02 26° E 20:23:44 10° NE
Meteor 1-4 Rocket 3.1 20:18:18 10° N 20:21:34 36° ENE 20:22:26 31° ESE
Terra 3.5 20:21:08 16° E 20:22:50 19° ENE 20:26:05 10° NNE
Cosmos 407 Rocket 3.4 20:18:30 10° SSW 20:23:50 80° ESE 20:29:08 10° NNE
USA 234 3.7 20:18:46 16° ESE 20:23:54 55° NNE 20:30:15 10° NW
Cosmos 1666 Rocket 3.5 20:21:27 16° S 20:24:52 66° E 20:29:10 10° NNE
CZ-2C R/B 4.1 20:20:22 10° N 20:25:07 38° WNW 20:29:53 10° SW
SL-8 R/B 3.9 20:21:37 10° WNW 20:26:23 60° SSW 20:28:49 28° SE
Cosmos 1238 Rocket 4.2 20:28:03 15° ENE 20:28:03 15° ENE 20:29:04 10° NE
MetOp-B 4.1 20:25:45 20° SSE 20:29:32 81° ENE 20:34:56 10° NNW
Meteor 1-27 Rocket 3.8 20:26:30 10° N 20:32:28 89° E 20:36:53 19° S
USA 238 DEB 3.9 20:30:31 10° S 20:36:39 43° ESE 20:43:01 10° NE
USA 238 3.9 20:30:39 10° S 20:36:46 43° ESE 20:43:07 10° NE
SPOT 5 3.6 20:35:54 26° E 20:37:01 30° ENE 20:40:48 10° N
BREEZE-M DEB (TANK) 3.3 20:34:34 10° WNW 20:38:08 23° SW 20:39:00 20° SSW
SPOT 1/Viking Rocket 3.6 20:39:53 30° SE 20:42:27 66° ENE 20:47:38 10° N
Cosmos 1980 Rocket 2.4 20:39:00 10° NNW 20:44:37 58° ENE 20:47:05 32° SE
OE (NEXTSAT) 4.4 20:41:42 10° WNW 20:45:08 58° SSW 20:45:31 53° S
SL-4 R/B 1.9 20:43:12 10° WSW 20:47:10 74° NNW 20:50:51 10° NE
Cosmos 405 Rocket 3.8 20:49:22 28° ENE 20:49:22 28° ENE 20:51:58 10° NNE
BREEZE-M DEB (TANK) 3.7 20:46:06 10° WNW 20:48:50 40° N 20:55:30 10° ENE
Cosmos 1140 Rocket 3.6 20:44:16 10° SSW 20:49:30 80° WNW 20:54:47 10° NNE
Genesis I 3.8 20:46:16 10° NNW 20:50:00 43° NE 20:50:44 38° E
ATLAS 5 CENTAUR R/B 3.3 20:47:34 10° NW 20:53:08 41° WSW 20:57:17 20° S
USA 32 3.9 20:53:02 31° S 20:55:33 73° E 21:00:47 10° N
Cosmos 1633 Rocket 3.4 20:55:05 19° SSW 20:58:10 66° W 21:02:34 10° N
Cosmos 1833 Rocket 3.5 20:53:20 10° SW 20:58:47 51° WNW 21:04:16 10° NNE
Cosmos 1697 Rocket 3.0 20:54:48 10° NNW 21:00:19 58° WSW 21:03:03 29° S
Cosmos 1867 3.5 20:59:45 10° SSW 21:05:11 89° SE 21:10:41 10° NE
CENTAUR R/B 2.8 21:04:46 38° SE 21:05:14 38° ESE 21:11:21 10° NE
Meteor 1-18 Rocket 4.4 21:02:58 10° N 21:08:28 53° ENE 21:09:49 43° ESE
Resurs 01 Rocket 3.6 21:05:06 11° SSW 21:08:31 24° W 21:12:06 10° NW
Okean 1-7 4.0 21:04:40 10° N 21:08:30 32° ENE 21:08:30 32° ENE
Landsat 7 4.4 21:08:59 30° SSW 21:11:04 53° W 21:15:45 10° NNW
FALCON 9 DEB 3.8 21:09:25 10° WSW 21:12:51 56° NNW 21:15:21 17° NE
Cosmos 1850 Rocket 4.4 21:14:18 41° E 21:14:18 41° E 21:19:11 10° NE
Meteor 2-4 Rocket 4.4 21:12:52 10° N 21:18:03 35° ENE 21:18:53 34° E
Cosmos 676 Rocket 4.2 21:14:02 15° SSW 21:18:24 71° WNW 21:23:45 10° NNE
Meteor 1-25 Rocket 4.2 21:17:53 32° SSW 21:20:34 83° W 21:26:12 10° N
Cosmos 1470 Rocket 3.8 21:19:31 42° SSW 21:20:52 67° W 21:25:16 10° N
Cosmos 192 4.3 21:17:05 10° NNW 21:22:01 80° WSW 21:22:57 58° S
ATLAS 5 CENTAUR R/B 4.0 21:19:46 10° N 21:22:08 19° NE 21:23:25 17° ENE
GP-B 4.3 21:24:35 10° NNW 21:28:44 39° W 21:30:41 25° SW
NOSS 3-2 (A) 3.3 21:25:36 10° SW 21:31:14 83° NW 21:37:43 10° NE
USA 267 4.3 21:26:07 10° NE 21:32:17 45° NNW 21:38:26 10° W
Cosmos 921 Rocket 2.9 21:30:44 10° NNW 21:34:50 75° W 21:34:50 75° W
NOSS 3-2 (C) 3.2 21:35:51 53° S 21:37:07 69° ESE 21:43:28 10° NE
ERS-1 Rocket 3.3 21:36:08 47° SSW 21:37:15 58° WSW 21:42:14 10° NNW
Cosmos 841 Rocket 4.4 21:36:47 10° N 21:41:35 35° ENE 21:42:00 35° ENE
Cosmos 540 Rocket 4.4 21:38:18 10° N 21:43:02 35° ENE 21:43:22 34° ENE
SL-16 R/B 2.5 21:37:56 10° NNW 21:43:30 52° ENE 21:44:17 48° E
Lacrosse 5 2.6 21:39:37 10° NW 21:44:29 44° NNE 21:45:31 38° ENE
Cosmos 468 Rocket 3.8 21:40:00 10° NNW 21:45:21 81° ENE 21:45:45 74° SE
Cosmos 1741 Rocket 3.8 21:48:23 78° SE 21:48:35 80° ESE 21:53:52 10° NNE
Cosmos 2082 Rocket 3.8 21:47:04 10° WSW 21:52:13 34° NW 21:57:22 10° N
Terra 2.2 22:00:02 53° WSW 22:00:10 53° W 22:04:51 10° NNW
Cosmos 2322 Rocket 2.3 22:00:14 10° NNW 22:05:54 63° ENE 22:06:13 62° E
Cosmos 2100 Rocket 3.8 22:05:35 66° SSW 22:06:32 88° W 22:12:43 10° N
USA 234 3.5 22:06:06 49° SSW 22:06:55 51° SW 22:13:17 10° WNW
Meteor 1-11 Rocket 4.1 22:09:09 49° ENE 22:09:09 49° ENE 22:14:07 10° NNE
Cosmos 1437 Rocket 4.2 22:08:17 10° NNW 22:10:50 34° NW 22:10:50 34° NW
Cosmos 1869 Rocket 4.1 22:13:01 57° NNW 22:13:01 57° NNW 22:16:43 10° N
SPOT 5 4.3 22:15:08 25° W 22:15:08 25° W 22:18:43 10° NW
Cosmos 2360 Rocket 2.8 22:14:37 10° NNW 22:20:04 45° ENE 22:20:19 45° ENE
ATLAS 3B R/B 3.0 22:21:13 47° E 22:21:13 47° E 22:26:31 10° NE
Geosat 4.1 22:20:48 73° NNE 22:20:48 73° NNE 22:25:30 10° NNW
Iridium 4 Rocket 3.8 22:21:45 51° NNW 22:21:45 51° NNW 22:25:05 10° N
Cosmos 2173 Rocket 4.0 22:21:11 62° SW 22:22:06 72° W 22:28:15 10° N
ALOS 2 4.1 22:27:44 29° NE 22:27:44 29° NE 22:30:37 10° N
SL-4 R/B 3.9 22:24:02 10° WNW 22:27:10 24° NNW 22:27:13 24° N
Cosmos 1725 Rocket 3.9 22:27:19 71° E 22:27:24 71° E 22:33:42 10° NNE
Cosmos 1980 Rocket 3.9 22:24:00 10° NW 22:28:07 21° W 22:28:51 20° WSW
Cosmos 1763 Rocket 4.2 22:26:23 10° NNW 22:31:09 46° W 22:31:09 46° W
SL-08 R/B 4.3 22:32:19 78° E 22:32:19 78° E 22:38:21 10° N
Cosmos 2016 Rocket 3.9 22:39:51 74° SW 22:40:18 78° W 22:46:43 10° N
Cosmos 2333 Rocket 3.6 22:35:25 10° N 22:40:25 29° NE 22:41:19 28° ENE
Cosmos 2061 Rocket 3.9 22:41:23 74° WSW 22:41:43 76° W 22:47:57 10° N
Lacrosse 4 Rocket 4.0 22:45:23 14° NE 22:45:23 14° NE 22:46:03 10° NE
Meteor 1-13 Rocket 4.3 22:38:18 10° NNW 22:43:23 68° WNW 22:43:23 68° WNW
MOS 1-B Rocket 4.0 22:40:49 10° N 22:46:24 63° WNW 22:46:44 62° W
Cosmos 1733 Rocket 4.4 22:50:59 38° N 22:50:59 38° N 22:53:44 10° N
Cosmos 1864 Rocket 4.4 22:53:23 73° W 22:53:33 73° W 22:59:48 10° N
Cosmos 1066 Rocket 4.3 22:48:37 10° N 22:53:46 71° NNE 22:53:46 71° NNE
CENTAUR R/B 3.5 22:51:50 21° WSW 22:55:44 45° NW 23:02:33 10° NNE
Meteor 1-23 Rocket 4.3 22:50:19 10° N 22:55:43 74° NNE 22:55:43 74° NNE
Thor Agena Rocket 3.9 22:52:36 10° N 22:57:00 59° NNW 22:57:00 59° NNW
Cosmos 967 Rocket 4.4 22:55:01 10° NW 23:01:03 78° WNW 23:01:03 78° WNW
Cosmos 44 4.3 22:58:09 10° NW 23:01:33 43° NW 23:01:33 43° NW
Cosmos 2233 Rocket 4.0 23:14:31 79° WNW 23:14:31 79° WNW 23:20:45 10° N
SL-16 R/B 3.9 23:22:47 10° NW 23:26:08 23° W 23:26:08 23° W
Lacrosse 5 3.7 23:22:43 10° WNW 23:24:41 22° WNW 23:24:41 22° WNW
Cosmos 2322 4.0 23:24:43 10° NNW 23:29:31 64° NNW 23:29:31 64° NNW
Cosmos 2219 Rocket 2.5 23:33:17 10° NNW 23:38:19 63° NNE 23:38:19 63° NNE
Cosmos 2322 Rocket 4.2 23:45:28 10° NW 23:48:01 18° W 23:48:01 18° W
CZ-2D R/B 4.3 23:52:06 10° ENE 23:54:54 14° E 23:54:54 14° E
